Location: Niagara
(43.2500°N, 79.0670°W)
Time: 03:48:33
(UTC-04:00)

Tiangong 1 - Pass Details

Date: 15 October 2017
Orbit: 292 x 319 km, 42.8° (Epoch: 23 October)

Event Time Altitude Azimuth Distance (km) Brightness Sun altitude
Rises 20:14:49 0° 272° (W) 2,040 6.4 -19.3°
Reaches altitude 10° 20:17:25 10° 244° (WSW) 1,200 4.4 -19.8°
Maximum altitude 20:18:55 14° 211° (SSW) 1,007 3.4 -20.1°
Enters shadow 20:19:09 14° 204° (SSW) 1,012 3.4 -20.1°
